EW4711 Weather Reports


Display with metric or nautical units.
time (UTC)temp
F
wind
direction
speed
MPH
gust
MPH
rain 1hr
in
rain 24hr
in
rain mn
in
humidity
%
barometer
mb
20260509130604 56 245 5.0 10.0 0.00 0.00 0.00 84 1006.3
20260509125603 54 219 2.0 8.0 0.00 0.00 0.00 86 1006.4
20260509125103 53 239 3.0 9.0 0.00 0.00 0.00 86 1006.3
20260509124604 53 247 2.0 8.0 0.00 0.00 0.00 86 1006.4
20260509124103 53 245 2.0 7.0 0.00 0.00 0.00 87 1006.4
20260509123604 52 250 2.0 5.0 0.00 0.00 0.00 87 1006.6
20260509122605 51 240 1.0 6.0 0.00 0.00 0.00 87 1006.7
20260509122103 51 238 2.0 3.0 0.00 0.00 0.00 87 1006.8
20260509121604 51 245 1.0 3.0 0.00 0.00 0.00 88 1006.8
20260509121104 50 237 1.0 5.0 0.00 0.00 0.00 88 1006.8
20260509120604 50 222 1.0 3.0 0.00 0.01 0.00 89 1006.8
20260509120105 49 220 1.0 3.0 0.00 0.01 0.00 89 1006.8
20260509115603 49 203 2.0 3.0 0.00 0.01 0.00 89 1006.8
20260509115103 48 234 1.0 2.0 0.00 0.01 0.00 89 1006.7
20260509114604 48 224 1.0 3.0 0.00 0.01 0.00 89 1006.7
20260509114104 47 221 1.0 3.0 0.00 0.01 0.00 89 1006.8
20260509113103 47 202 2.0 3.0 0.00 0.02 0.00 89 1006.6
20260509112604 47 212 2.0 5.0 0.00 0.02 0.00 89 1006.6
20260509112104 46 209 2.0 3.0 0.00 0.03 0.00 89 1006.7
20260509111605 46 221 2.0 5.0 0.00 0.03 0.00 90 1006.8
20260509111103 46 216 2.0 3.0 0.00 0.04 0.00 89 1006.9
20260509110104 45 205 1.0 3.0 0.00 0.05 0.00 89 1006.8
20260509105603 45 240 0.0 1.0 0.00 0.05 0.00 88 1006.9
20260509104604 45 240 1.0 2.0 0.00 0.05 0.00 88 1007.1
20260509103603 44 243 2.0 3.0 0.00 0.05 0.00 88 1007.0
20260509103103 44 240 2.0 3.0 0.00 0.05 0.00 88 1006.9
20260509102603 44 242 2.0 5.0 0.00 0.05 0.00 88 1007.0
20260509102103 44 246 3.0 5.0 0.00 0.05 0.00 87 1007.0
20260509101604 44 254 2.0 3.0 0.00 0.05 0.00 87 1006.9
20260509101103 43 245 2.0 3.0 0.00 0.05 0.00 87 1006.8
20260509100604 43 235 1.0 2.0 0.00 0.05 0.00 87 1006.8
20260509100103 43 256 1.0 2.0 0.00 0.05 0.00 86 1006.8
20260509095604 43 256 0.0 2.0 0.00 0.05 0.00 86 1006.9
20260509095103 43 256 1.0 2.0 0.00 0.05 0.00 86 1006.9
20260509094603 43 257 1.0 2.0 0.00 0.05 0.00 85 1006.8
20260509093104 43 245 1.0 3.0 0.00 0.05 0.00 84 1006.8
20260509092604 42 245 1.0 2.0 0.00 0.05 0.00 84 1006.9
20260509091604 42 245 1.0 3.0 0.00 0.05 0.00 84 1006.9
20260509091104 42 238 1.0 3.0 0.00 0.05 0.00 84 1006.9
20260509090605 42 235 1.0 3.0 0.00 0.05 0.00 84 1006.9
20260509090104 42 235 2.0 3.0 0.00 0.05 0.00 84 1006.9
20260509085604 41 234 1.0 2.0 0.00 0.05 0.00 84 1006.9
20260509085104 41 231 1.0 2.0 0.00 0.05 0.00 84 1007.0
20260509084104 41 227 1.0 2.0 0.00 0.05 0.00 83 1007.1
20260509083604 41 226 1.0 3.0 0.00 0.05 0.00 83 1007.2
20260509083104 41 216 1.0 2.0 0.00 0.05 0.00 83 1007.2
20260509082603 41 207 1.0 2.0 0.00 0.05 0.00 82 1007.2
20260509082103 40 207 1.0 3.0 0.00 0.05 0.00 82 1007.2
20260509081604 40 211 2.0 3.0 0.00 0.05 0.00 82 1007.2
20260509081104 40 195 1.0 3.0 0.00 0.05 0.00 82 1007.3
20260509080604 41 197 1.0 3.0 0.00 0.05 0.00 81 1007.2
20260509080104 41 205 1.0 3.0 0.00 0.05 0.00 81 1007.3
20260509075604 41 193 1.0 3.0 0.00 0.05 0.00 81 1007.3
20260509075104 41 205 1.0 2.0 0.00 0.05 0.00 81 1007.3
20260509074603 41 203 1.0 2.0 0.00 0.05 0.00 81 1007.3
20260509074104 40 203 1.0 2.0 0.00 0.05 0.00 81 1007.4
20260509073603 40 201 1.0 3.0 0.00 0.05 0.00 81 1007.5
20260509072604 40 199 1.0 2.0 0.00 0.05 0.00 80 1007.6
20260509071604 40 211 1.0 2.0 0.00 0.05 0.00 79 1007.6
20260509071103 40 198 1.0 3.0 0.00 0.05 0.00 79 1007.6
20260509070604 40 199 1.0 3.0 0.00 0.05 0.00 79 1007.7
20260509070104 40 199 1.0 3.0 0.00 0.05 0.00 79 1007.7
20260509065604 41 191 1.0 3.0 0.00 0.05 0.00 78 1007.8
20260509065103 41 218 1.0 2.0 0.00 0.05 0.00 78 1007.8
20260509064103 41 206 1.0 3.0 0.00 0.05 0.00 78 1007.9
20260509063104 41 222 1.0 2.0 0.00 0.05 0.00 77 1008.0
20260509062603 41 222 1.0 2.0 0.00 0.05 0.00 77 1008.1
20260509061604 41 222 1.0 2.0 0.00 0.05 0.00 77 1008.3
20260509060603 42 226 1.0 2.0 0.00 0.05 0.00 77 1008.5
20260509060104 42 229 1.0 3.0 0.00 0.05 0.00 77 1008.5
20260509055604 42 214 1.0 2.0 0.00 0.05 0.00 76 1008.6
20260509055104 42 208 1.0 2.0 0.00 0.05 0.00 77 1008.6
20260509054603 42 214 2.0 5.0 0.00 0.05 0.00 76 1008.6
20260509054105 42 208 1.0 5.0 0.00 0.05 0.00 76 1008.6
20260509052103 42 245 1.0 3.0 0.00 0.05 0.00 74 1008.9
20260509051604 42 191 3.0 5.0 0.00 0.05 0.00 74 1008.8
20260509051104 42 201 2.0 3.0 0.00 0.05 0.00 73 1008.9
20260509050603 42 202 3.0 5.0 0.00 0.05 0.00 73 1009.0
20260509050104 42 206 2.0 3.0 0.00 0.05 0.00 73 1009.1
20260509045604 42 191 2.0 5.0 0.00 0.05 0.00 73 1009.2
20260509045104 42 216 1.0 3.0 0.00 0.05 0.00 73 1009.2
20260509044604 42 212 1.0 3.0 0.00 0.05 0.00 73 1009.2
20260509044104 42 220 1.0 3.0 0.00 0.05 0.00 72 1009.2
20260509043604 42 211 1.0 2.0 0.00 0.05 0.00 71 1009.4
20260509043104 42 212 1.0 3.0 0.00 0.05 0.00 71 1009.4
20260509042604 42 215 1.0 2.0 0.00 0.05 0.00 71 1009.4
20260509042104 42 215 1.0 3.0 0.00 0.05 0.00 70 1009.4
20260509041604 42 240 1.0 2.0 0.00 0.05 0.00 70 1009.4
20260509041104 42 240 1.0 3.0 0.00 0.05 0.00 69 1009.5
20260509035604 42 249 1.0 2.0 0.00 0.05 0.05 70 1009.6
20260509035103 41 249 1.0 2.0 0.00 0.05 0.05 70 1009.6
20260509034604 41 249 1.0 2.0 0.00 0.05 0.05 70 1009.7
20260509034103 41 249 1.0 2.0 0.00 0.05 0.05 70 1009.7
20260509033603 41 249 1.0 2.0 0.00 0.05 0.05 70 1009.7
20260509033103 41 249 1.0 2.0 0.00 0.05 0.05 70 1009.7
20260509032604 41 249 1.0 2.0 0.00 0.05 0.05 70 1009.7
20260509032105 41 249 1.0 2.0 0.00 0.05 0.05 69 1009.8
20260509031603 41 249 1.0 2.0 0.00 0.05 0.05 68 1009.9
20260509031103 42 249 1.0 2.0 0.00 0.05 0.05 67 1009.9
20260509030604 42 249 1.0 2.0 0.00 0.05 0.05 67 1009.9
20260509030104 42 249 1.0 2.0 0.00 0.05 0.05 66 1010.0
20260509025603 42 249 1.0 3.0 0.00 0.05 0.05 66 1009.9
20260509025104 42 249 1.0 2.0 0.00 0.05 0.05 67 1009.9
20260509024104 42 245 2.0 3.0 0.00 0.05 0.05 68 1010.0
20260509023604 42 224 2.0 3.0 0.00 0.05 0.05 69 1010.0
20260509023104 42 250 1.0 3.0 0.00 0.05 0.05 69 1010.0
20260509022104 42 251 1.0 3.0 0.00 0.05 0.05 68 1009.8
20260509021604 43 251 1.0 2.0 0.00 0.06 0.05 68 1009.8
20260509020604 43 251 0.0 2.0 0.00 0.07 0.05 68 1009.8
20260509020104 44 251 1.0 2.0 0.00 0.08 0.05 67 1009.8
20260509015603 44 251 1.0 2.0 0.00 0.08 0.05 66 1009.8
20260509015104 45 251 1.0 2.0 0.00 0.08 0.05 66 1009.7
20260509014604 45 251 1.0 2.0 0.00 0.08 0.05 65 1009.7
20260509014104 45 251 0.0 0.0 0.00 0.09 0.05 64 1009.7
20260509013104 46 251 1.0 2.0 0.00 0.09 0.05 62 1009.6
20260509012604 47 251 1.0 2.0 0.00 0.09 0.05 60 1009.6
20260509011604 47 251 1.0 3.0 0.00 0.09 0.05 58 1009.7
20260509011103 48 240 1.0 2.0 0.00 0.09 0.05 58 1009.7
20260509005605 49 262 1.0 2.0 0.00 0.09 0.05 58 1009.6
20260509005104 49 258 2.0 3.0 0.00 0.09 0.05 58 1009.6
20260509004603 50 253 2.0 3.0 0.00 0.09 0.05 57 1009.6
20260509004104 50 238 2.0 3.0 0.00 0.09 0.05 57 1009.5
20260509003604 50 251 1.0 2.0 0.00 0.09 0.05 56 1009.5
20260509002604 51 239 2.0 3.0 0.00 0.09 0.05 54 1009.4
20260509002104 51 248 2.0 3.0 0.00 0.10 0.05 54 1009.3
20260509001604 52 264 1.0 3.0 0.00 0.10 0.05 53 1009.3
20260509001104 52 259 1.0 3.0 0.00 0.12 0.05 52 1009.2
20260509000604 52 257 2.0 5.0 0.00 0.13 0.05 52 1009.3
20260509000104 53 252 1.0 6.0 0.00 0.14 0.05 51 1009.2
20260508235604 53 261 3.0 7.0 0.00 0.15 0.05 51 1009.2
20260508235103 53 254 2.0 5.0 0.00 0.16 0.05 50 1009.2
20260508234605 54 213 2.0 6.0 0.00 0.16 0.05 49 1009.1
20260508234104 54 246 3.0 7.0 0.00 0.16 0.05 50 1009.1
20260508233603 54 244 4.0 9.0 0.00 0.16 0.05 48 1009.1
20260508233104 55 246 3.0 8.0 0.00 0.16 0.05 49 1009.2
20260508232104 55 236 3.0 7.0 0.00 0.16 0.05 48 1009.1
20260508231603 55 247 4.0 9.0 0.00 0.16 0.05 49 1009.1
20260508231103 56 267 2.0 8.0 0.00 0.16 0.05 49 1009.1
20260508230104 56 277 1.0 3.0 0.00 0.16 0.05 51 1009.0
20260508225603 56 286 3.0 7.0 0.00 0.16 0.05 49 1009.1
20260508225103 57 261 3.0 6.0 0.00 0.16 0.05 48 1009.0
20260508224602 57 244 3.0 6.0 0.00 0.16 0.05 50 1009.1
20260508224103 57 287 2.0 5.0 0.00 0.16 0.05 50 1009.1
20260508223603 57 288 3.0 7.0 0.00 0.16 0.05 49 1009.1
20260508223103 57 263 2.0 5.0 0.00 0.16 0.05 49 1009.1
20260508222602 57 293 2.0 5.0 0.00 0.16 0.05 50 1009.1
20260508222102 57 256 3.0 5.0 0.00 0.16 0.05 50 1009.1
20260508221603 57 268 2.0 8.0 0.00 0.16 0.05 50 1009.1
20260508221103 57 252 2.0 3.0 0.00 0.16 0.05 52 1009.2
20260508215103 58 305 3.0 6.0 0.00 0.16 0.05 49 1009.3
20260508214102 58 270 5.0 10.0 0.00 0.16 0.05 52 1009.3
20260508213602 58 333 3.0 10.0 0.00 0.16 0.05 50 1009.3
20260508212603 58 301 4.0 8.0 0.00 0.16 0.05 54 1009.3
20260508212103 57 310 3.0 8.0 0.00 0.16 0.05 52 1009.3
20260508211605 58 334 4.0 8.0 0.00 0.16 0.05 49 1009.3
20260508211102 58 294 3.0 5.0 0.00 0.16 0.05 51 1009.3
20260508210603 58 241 4.0 8.0 0.00 0.16 0.05 51 1009.4
20260508205602 57 235 3.0 6.0 0.00 0.16 0.05 55 1009.3
20260508205103 57 229 3.0 6.0 0.00 0.16 0.05 56 1009.4
20260508204603 57 224 3.0 9.0 0.00 0.16 0.05 58 1009.4
20260508204103 56 265 2.0 5.0 0.00 0.16 0.05 54 1009.5
20260508203603 57 265 2.0 8.0 0.00 0.16 0.05 54 1009.5
20260508203102 58 236 3.0 8.0 0.00 0.16 0.05 53 1009.5
20260508202603 58 275 3.0 8.0 0.00 0.16 0.05 53 1009.6
20260508202103 58 289 6.0 10.0 0.00 0.16 0.05 57 1009.7
20260508201603 58 294 5.0 10.0 0.00 0.16 0.05 59 1009.8
20260508201104 56 292 2.0 8.0 0.00 0.16 0.05 58 1009.7
20260508200603 56 302 3.0 7.0 0.00 0.16 0.05 61 1009.8
20260508195603 57 259 2.0 8.0 0.00 0.16 0.05 59 1009.8
20260508195103 56 205 2.0 9.0 0.00 0.16 0.05 58 1009.9
20260508194604 56 283 2.0 3.0 0.00 0.16 0.05 57 1010.0
20260508193603 57 274 2.0 5.0 0.00 0.16 0.05 58 1010.1
20260508193102 57 208 1.0 9.0 0.00 0.16 0.05 55 1010.1
20260508192603 58 269 3.0 7.0 0.00 0.16 0.05 52 1010.2
20260508192103 58 277 2.0 5.0 0.00 0.16 0.05 53 1010.2
20260508191603 58 263 1.0 6.0 0.00 0.16 0.05 48 1010.2
20260508191102 57 250 2.0 5.0 0.00 0.16 0.05 53 1010.3
20260508190603 57 269 4.0 9.0 0.00 0.16 0.05 51 1010.4
20260508190103 58 288 3.0 8.0 0.00 0.16 0.05 56 1010.4
20260508185602 57 296 3.0 9.0 0.00 0.16 0.05 56 1010.5
20260508185103 57 305 4.0 7.0 0.00 0.16 0.05 50 1010.5
20260508184603 58 340 2.0 10.0 0.00 0.16 0.05 50 1010.5
20260508184103 58 316 3.0 6.0 0.00 0.16 0.05 58 1010.6
20260508183103 58 42 4.0 10.0 0.00 0.16 0.05 51 1010.7
20260508182603 56 267 1.0 3.0 0.00 0.16 0.05 53 1010.6
20260508182103 56 4 3.0 7.0 0.00 0.16 0.05 52 1010.7
20260508181603 55 323 4.0 7.0 0.00 0.16 0.05 57 1010.8
20260508181103 56 298 5.0 10.0 0.00 0.16 0.05 54 1010.8
20260508180603 56 265 3.0 10.0 0.00 0.16 0.05 53 1010.8
20260508180103 55 351 6.0 12.0 0.00 0.16 0.05 55 1010.9
20260508175603 54 206 3.0 6.0 0.00 0.16 0.05 47 1010.9
20260508175102 56 341 6.0 9.0 0.00 0.16 0.05 48 1011.0
20260508174603 56 323 7.0 12.0 0.00 0.16 0.05 56 1011.0
20260508174103 56 350 6.0 12.0 0.00 0.16 0.05 51 1011.0
20260508173603 54 337 2.0 6.0 0.00 0.16 0.05 58 1011.0
20260508173104 55 293 5.0 12.0 0.00 0.16 0.05 50 1011.1
20260508172603 55 298 5.0 12.0 0.00 0.16 0.05 53 1011.1
20260508172102 55 347 3.0 7.0 0.00 0.16 0.05 58 1011.1
20260508171103 54 307 5.0 10.0 0.00 0.16 0.05 55 1011.2
20260508170603 55 8 5.0 12.0 0.00 0.16 0.05 62 1011.3
20260508170103 55 342 6.0 15.0 0.00 0.16 0.05 59 1011.3
20260508165602 55 336 5.0 15.0 0.00 0.16 0.05 56 1011.2
20260508164103 53 276 3.0 12.0 0.00 0.16 0.05 63 1011.4
20260508163603 53 315 6.0 10.0 0.00 0.16 0.05 62 1011.5
20260508163103 53 298 6.0 12.0 0.00 0.16 0.05 68 1011.5
20260508162603 52 237 3.0 10.0 0.00 0.16 0.05 66 1011.5
20260508162103 54 314 5.0 12.0 0.00 0.16 0.05 68 1011.6
20260508161603 53 308 3.0 8.0 0.00 0.16 0.05 69 1011.6
20260508161103 52 352 6.0 15.0 0.00 0.16 0.05 65 1011.7
20260508160603 52 283 2.0 8.0 0.00 0.16 0.05 69 1011.8
20260508160103 52 245 3.0 8.0 0.00 0.16 0.05 69 1011.7
20260508155602 51 301 5.0 10.0 0.00 0.16 0.05 73 1011.7
20260508155103 52 294 5.0 9.0 0.00 0.16 0.05 73 1011.8
20260508154603 51 15 5.0 12.0 0.00 0.16 0.05 71 1011.9
20260508154103 51 283 4.0 9.0 0.00 0.16 0.05 74 1012.0
20260508152603 50 302 3.0 10.0 0.00 0.16 0.05 76 1012.1
20260508152103 51 271 3.0 8.0 0.00 0.16 0.05 75 1012.0
20260508151103 50 287 4.0 12.0 0.00 0.16 0.05 81 1012.1
20260508150603 49 249 3.0 9.0 0.00 0.16 0.05 81 1012.0
20260508145103 49 315 3.0 7.0 0.00 0.16 0.05 83 1011.9
20260508144102 48 242 3.0 8.0 0.00 0.16 0.05 81 1011.9
20260508143603 48 258 1.0 3.0 0.00 0.16 0.05 80 1012.0
20260508142104 47 244 1.0 5.0 0.00 0.16 0.05 83 1011.9
20260508141103 48 240 3.0 6.0 0.00 0.16 0.05 81 1011.9
20260508140604 49 253 3.0 8.0 0.00 0.16 0.05 82 1011.9
20260508135603 48 254 2.0 5.0 0.00 0.16 0.05 85 1011.9
20260508135103 47 207 2.0 3.0 0.00 0.16 0.05 87 1011.8
20260508134603 47 202 2.0 7.0 0.00 0.16 0.05 89 1012.0
20260508134103 47 348 1.0 5.0 0.00 0.16 0.05 91 1012.0
20260508133603 45 1 1.0 5.0 0.00 0.16 0.05 90 1012.0
20260508133103 46 243 2.0 3.0 0.00 0.16 0.05 94 1012.0
20260508132603 44 201 1.0 3.0 0.00 0.16 0.05 94 1012.0
20260508132103 43 260 2.0 3.0 0.00 0.16 0.05 93 1012.1
20260508131603 43 230 2.0 3.0 0.00 0.16 0.05 93 1012.2